SCP
0 0 0 0 0 0 0 0 0 0 0 0 0 0 0 0 0 0 0 0 0 0 0 0 0 0 0 0 0 0 0 0 0 0 0 0 0 0 0 0 0 0 0 0 0 0 0 0 0
0 0 0 0 0 0 0 0 0 0 0 0 0 0 0 0 0 0 0 0 0 0 0 0 0 0 0 0 0 0 0 0 0 0 0 0 0 0 0 0 0 0 0 0 0 0 0 0 0
0 0 0 0 0 0 0 0 0 0 0 0 0 0 0 0 0 0 0 0 0 0 0 0 0 0 0 0 0 0 0 0 0 0 0 0 0 0 0 0 0 0 0 0 0 0 0 0 0
0 0 0 0 0 0 0 0 0 0 0 0 0 0 0 0 0 0 0 0 0 0 0 0 0 0 0 0 0 0 0 0 0 0 0 0 0 0 0 0 0 0 0 0 0 0 0 0 0
0 0 0 0 0 0 0 0 0 0 0 0 0 0 0 0 0 0 0 0 0 0 0 0 0 0 0 0 0 0 0 0 0 0 0 0 0 0 0 0 0 0 0 0 0 0 0 0 0
0 0 0 0 0 0 0 0 0 0 0 0 0 0 0 0 0 0 0 0 0 0 0 0 0 0 0 0 0 0 0 0 0 0 0 0 0 0 0 0 0 0 0 0 0 0 0 0 0
0 0 0 0 0 0 0 0 0 0 0 0 0 0 0 0 0 0 0 0 0 -0 -0 -0 0 0 0 0 0 0 0 0 0 0 0 0 0 0 0 0 0 0 0 0 0 0 0 0 0
0 0 0 0 0 0 0 0 0 0 0 0 0 0 0 0 0 0 0 0 0 -0 -0 -0 -0 0 0 0 0 0 0 0 0 0 0 0 0 0 0 0 0 0 0 0 0 0 0 0 0
0 0 0 0 0 0 0 0 0 0 0 0 0 0 0 0 0 0 0 0 0 -0 -0 -0 -0 0 0 0 0 0 0 0 0 0 0 0 0 0 0 0 0 0 0 0 0 0 0 0 0
0 0 0 0 0 0 0 0 0 0 0 0 0 0 0 0 0 0 0 0 0 -0 -0 -0 0 0 0 0 0 0 0 0 0 0 0 0 0 0 0 0 0 0 0 0 0 0 0 0 0
0 0 0 0 0 0 0 0 0 0 0 0 0 0 0 0 0 0 0 0 -0 -0 0 0 0 0 0 0 0 0 0 0 0 0 0 0 0 0 0 0 0 0 0 0 0 0 0 0 0
0 0 0 0 0 0 0 0 0 0 0 0 0 0 0 0 0 0 0 0 0 0 0 0 0 0 0 0 0 0 0 0 0 0 0 0 0 0 0 0 0 0 0 0 0 0 0 0 0
0 0 0 0 0 0 0 0 0 0 0 0 0 0 0 0 0 0 0 0 0 0 0 0 0 0 0 0 0 0 0 0 0 0 0 0 0 0 0 0 0 0 0 0 0 0 0 0 0
0 0 0 0 0 0 0 0 0 0 0 0 0 0 0 0 0 0 0 0 0 0 0 0 0 0 0 0 0 0 0 0 0 0 0 0 0 0 0 0 0 0 0 0 0 0 0 0 0
0 0 0 0 0 0 0 0 0 0 0 0 0 0 0 0 0 0 0 0 0 0 0 0 0 0 0 0 0 0 0 0 0 0 0 0 0 0 0 0 0 0 0 0 0 0 0 0 0
0 0 0 0 0 0 0 0 0 0 0 0 0 0 0 0 0 0 0 0 0 0 0 0 0 0 0 0 0 0 0 0 0 0 0 0 0 0 0 0 0 0 0 0 0 0 0 0 0
0 0 0 0 0 0 0 0 0 0 0 0 0 0 0 0 0 0 0 0 0 0 0 0 0 0 0 0 0 0 0 0 0 -0 -0 0 0 0 0 0 0 0 0 0 0 0 0 0 0
0 0 0 0 0 0 0 0 0 0 0 0 0 0 0 0 0 0 0 0 0 0 0 0 0 0 0 0 0 0 0 0 0 0 0 0 0 0 0 0 0 0 0 0 0 0 0 0 0
0 0 0 0 0 0 0 0 0 0 0 0 0 0 0 0 0 0 0 0 0 0 0 0 0 0 0 0 0 0 0 0 0 0 0 -0 -0 0 0 0 0 0 0 0 0 0 0 0 0
0 0 0 0 0 0 0 0 0 0 0 0 0 0 0 0 0 0 0 0 0 0 0 0 0 0 0 0 0 0 0 -0 0 0 0 0 0 0 0 0 0 0 0 0 0 0 0 0 0
0 0 0 0 0 0 0 0 0 0 0 0 0 0 0 0 0 0 0 0 0 0 0 0 0 0 0 0 0 0 0 0 0 0 0 0 0 0 0 0 0 0 0 0 0 0 0 0 0
0 0 0 0 0 0 0 0 0 0 0 0 0 0 0 0 0 0 0 0 0 0 0 0 0 0 0 0 0 0 0 0 0 0 0 0 0 0 0 0 0 0 0 0 0 0 0 0 0
0 0 0 0 0 0 0 0 0 0 0 0 0 0 0 0 0 0 0 0 0 0 0 0 0 0 0 0 0 0 0 0 0 0 0 0 0 0 0 0 0 0 0 0 0 0 0 0 0
0 0 0 0 0 0 0 0 0 0 0 0 0 0 0 0 0 0 0 0 0 0 0 0 0 0 0 0 0 0 0 0 0 0 0 0 0 0 0 0 0 0 0 0 0 0 0 0 0
0 0 0 0 0 0 0 0 0 0 0 0 0 0 0 0 0 0 0 0 0 0 0 0 0 0 0 0 0 0 0 0 0 0 0 0 0 0 0 0 0 0 0 0 0 0 0 0 0
0 0 0 0 0 0 0 0 0 0 0 0 0 0 0 0 0 0 0 0 0 0 0 0 0 0 0 0 0 0 0 0 0 0 0 0 -0 0 0 0 0 0 0 0 0 0 0 0 0
0 0 0 0 0 0 0 0 0 0 0 0 0 0 0 0 0 0 0 0 0 0 0 0 0 -0 0 0 0 0 0 0 0 0 0 0 -0 -0 0 0 0 0 0 0 0 0 0 0 0
0 0 0 0 0 0 0 0 0 0 0 0 0 0 0 0 0 0 0 0 0 0 0 0 0 0 0 0 0 0 0 0 0 0 0 0 -0 -0 0 0 0 0 0 0 0 0 0 0 0
0 0 0 0 0 0 0 0 0 0 0 0 0 0 0 0 0 0 0 0 0 0 0 0 0 0 0 0 0 0 0 0 0 0 0 0 -0 -0 0 0 0 0 0 0 0 0 0 0 0
0 0 0 0 0 0 0 0 0 0 0 0 0 0 0 0 0 0 0 0 0 0 0 0 0 0 0 0 0 0 0 0 0 0 0 0 0 0 0 0 0 0 0 0 0 0 0 0 0
Wind_Speed
9 6 1 3 5 5 2 1 1 2 4 5 9 10 9 7 6 7 3 7 8 6 5 7 10 11 11 11 11 11 11 11 11 11 11 11 11 10 10 10 10 10 9 9 9 8 8 8 7
5 3 3 4 5 3 1 0 3 4 7 7 9 8 8 7 7 7 5 7 9 7 5 7 11 11 11 11 11 12 11 11 11 11 11 10 10 10 9 9 9 8 8 8 7 7 6 6 6
4 0 3 4 3 3 3 2 4 5 5 4 6 6 6 5 5 4 6 9 9 7 5 7 12 12 12 12 12 12 11 11 11 10 10 10 10 9 9 8 8 8 7 7 6 6 5 5 5
2 4 4 4 2 1 5 4 5 6 6 6 6 7 5 3 4 7 10 10 9 6 5 7 12 12 12 12 11 11 11 10 10 9 9 9 9 9 8 7 7 7 6 6 6 5 4 4 4
3 4 4 2 1 1 2 3 4 5 4 5 8 7 5 3 10 12 10 10 9 6 4 6 12 12 12 11 11 10 10 9 9 8 8 8 8 7 7 6 5 5 4 4 4 4 3 4 4
4 4 4 1 1 1 2 4 7 9 8 7 9 7 4 5 10 10 10 9 8 7 5 6 11 12 11 11 10 9 9 8 8 7 7 6 6 5 5 4 3 3 3 2 2 2 3 3 4
3 3 2 2 2 2 2 3 6 8 6 5 6 7 4 5 8 9 9 8 7 6 5 4 4 7 10 10 9 8 7 7 6 5 5 4 4 4 3 2 2 2 2 1 2 2 3 3 4
4 4 2 1 3 2 1 2 5 8 5 6 6 8 6 7 8 9 8 7 6 5 5 4 3 3 3 4 7 7 6 5 4 3 3 2 1 2 1 1 0 0 1 2 3 3 4 4 4
3 4 2 3 4 3 3 5 3 4 7 3 4 6 9 11 10 8 6 4 5 6 4 4 4 3 3 3 4 4 3 1 0 1 1 0 1 1 2 2 2 2 2 3 4 5 5 5 4
3 3 3 3 4 5 5 5 5 4 6 6 7 8 10 9 9 9 8 7 6 6 6 5 5 5 4 3 2 0 0 1 1 1 1 0 1 1 2 3 4 4 5 5 5 5 5 4 2
2 4 2 2 3 5 5 4 3 7 6 9 14 13 11 9 8 8 7 6 6 6 6 6 6 4 4 2 2 1 0 1 1 1 1 1 1 1 1 1 3 3 4 3 4 4 2 2 1
1 2 4 4 4 4 5 5 4 4 7 9 12 13 10 9 8 8 7 6 5 5 5 6 6 4 4 3 2 2 1 0 1 1 1 2 2 1 1 1 1 1 1 2 2 2 2 2 2
1 1 3 5 6 6 8 7 6 4 7 9 10 10 10 9 7 6 6 6 6 5 4 5 5 5 4 4 2 2 2 1 1 2 2 3 2 2 1 1 1 2 1 2 2 2 3 3 3
1 3 3 5 6 5 9 6 6 7 9 10 9 8 9 9 8 6 6 6 6 6 5 5 5 5 5 4 3 2 2 2 3 3 3 4 3 2 2 2 2 2 2 2 2 2 2 2 2
2 5 4 2 3 3 8 5 6 9 10 10 8 7 8 7 8 8 8 7 6 6 6 6 6 6 6 5 4 3 2 3 3 3 4 4 3 3 3 3 3 2 2 3 3 3 3 3 3
3 4 1 2 2 3 7 5 6 8 10 9 7 6 6 6 7 7 8 7 6 6 6 6 7 6 6 5 5 4 3 4 3 3 3 4 5 4 3 3 3 3 3 3 3 3 3 3 3
3 1 2 2 2 3 5 5 7 8 10 9 7 6 7 6 6 7 8 8 7 7 7 6 6 6 6 6 5 4 4 4 3 3 3 3 4 5 4 3 2 3 3 3 3 3 2 3 3
2 1 2 3 2 3 4 5 8 9 9 8 7 7 7 7 7 8 8 8 7 6 7 7 6 6 6 5 4 4 4 3 3 3 3 4 4 4 4 3 4 4 3 3 3 3 3 2 2
2 2 2 2 1 3 5 7 9 9 8 8 7 8 8 8 6 7 8 8 7 6 7 6 6 5 5 4 3 3 2 1 2 2 3 4 4 4 4 3 4 4 3 3 3 3 4 4 2
2 2 2 2 2 3 3 4 7 9 10 10 11 10 10 8 6 7 8 7 7 7 7 6 6 6 5 3 3 3 3 1 1 1 3 4 4 4 3 4 3 3 3 4 4 3 3 3 3
1 3 2 1 2 4 3 1 3 4 5 7 10 10 10 11 11 10 9 7 8 8 8 7 6 6 5 5 4 4 3 3 3 2 2 3 3 4 4 4 3 3 3 3 3 3 3 3 3
1 2 3 3 3 0 2 2 5 5 5 9 10 10 11 11 11 10 10 9 9 8 7 7 7 6 6 6 6 5 4 3 2 1 1 2 3 4 4 4 4 4 3 3 3 3 2 3 2
3 4 3 3 2 0 1 2 6 5 8 11 11 12 12 12 12 12 11 10 9 8 7 7 7 6 6 6 7 6 4 2 1 1 2 2 3 3 3 4 4 4 3 3 4 4 4 3 2
4 4 5 4 3 2 4 4 6 8 14 13 12 13 13 12 12 11 9 8 7 7 7 7 8 6 5 6 6 7 6 5 4 3 2 1 1 2 3 3 3 3 3 3 3 3 4 3 3
4 5 3 2 1 5 3 4 9 10 11 15 15 14 13 12 12 11 11 10 9 9 8 8 8 7 5 6 6 6 6 6 5 4 3 2 1 1 1 2 2 2 2 3 3 4 4 4 4
3 6 5 4 3 4 2 6 9 8 9 11 12 12 12 12 13 14 14 12 11 11 9 9 9 7 6 6 5 5 5 4 3 4 4 3 2 1 1 3 3 3 3 3 3 3 3 4 4
4 3 4 4 1 2 4 6 7 2 5 9 11 11 13 14 14 14 13 12 12 11 10 10 9 7 7 6 6 5 5 4 4 4 3 2 2 2 2 3 3 3 4 4 4 4 3 4 4
5 6 4 3 2 2 4 4 4 2 4 8 11 12 13 13 13 13 12 12 11 10 9 9 9 8 7 7 6 5 5 5 5 4 4 3 2 2 3 3 3 3 4 4 4 4 3 5 4
4 3 4 3 2 2 3 6 5 5 5 8 11 12 14 14 14 13 11 11 10 9 9 9 8 7 6 6 6 6 5 4 5 4 4 4 3 3 3 3 3 3 4 4 4 4 4 5 5
5 6 6 5 3 3 2 8 6 3 5 7 9 10 12 13 13 12 12 10 10 10 9 9 9 8 7 7 6 6 5 5 5 4 4 4 4 3 4 4 4 4 4 4 4 4 4 5 5
Wind_Direction
313 315 43 61 54 51 51 1 123 75 64 60 73 80 78 55 84 116 139 127 121 112 100 101 105 103 102 100 99 98 97 96 95 94 93 91 89 87 86 85 83 81 78 75 73 69 65 61 57
313 322 58 61 78 71 15 32 94 87 129 127 82 76 77 74 82 106 124 128 119 113 106 107 107 105 103 101 100 99 97 97 96 94 92 90 89 87 86 84 82 79 75 71 68 66 61 56 52
314 321 77 71 97 147 158 169 116 99 114 107 84 57 68 94 98 111 141 129 114 108 104 113 110 107 105 103 101 99 97 96 96 95 94 93 92 91 87 84 81 77 73 69 64 61 56 50 44
32 39 54 70 93 178 161 169 128 107 70 53 94 70 58 73 109 131 135 124 117 115 117 123 118 114 111 109 106 104 101 100 99 98 97 95 93 92 89 83 78 75 71 65 58 51 44 41 33
64 70 64 61 93 94 130 136 106 92 77 71 88 88 64 57 116 129 132 128 128 130 130 130 126 122 119 116 112 110 108 106 105 103 101 98 95 93 89 86 80 74 67 61 52 39 31 24 13
54 66 85 105 115 84 87 118 104 96 109 105 97 99 91 123 124 134 135 136 138 140 138 135 134 131 128 123 121 118 114 111 109 108 106 104 102 99 93 89 81 76 67 55 41 21 4 1 357
99 94 126 152 140 117 146 137 120 127 131 130 122 101 120 137 142 142 139 140 142 141 139 139 139 135 135 133 131 129 125 122 119 119 119 116 115 119 116 101 81 75 66 32 7 353 340 341 341
128 103 97 137 151 152 148 100 120 127 121 125 121 128 155 166 150 141 138 138 144 149 152 154 149 142 139 140 145 142 142 145 144 149 157 160 170 161 168 188 240 22 3 342 329 322 318 319 323
101 83 143 184 160 151 131 105 80 77 109 109 106 131 152 149 139 132 130 140 157 164 174 171 170 172 164 168 170 152 156 179 188 285 235 195 303 287 281 264 258 280 303 316 317 313 310 316 328
95 124 198 191 161 153 139 124 118 97 97 99 99 116 137 140 140 144 151 161 171 178 182 180 182 185 184 186 156 143 354 340 316 305 314 247 214 256 252 275 282 302 313 320 325 324 325 336 346
153 174 178 126 142 138 128 105 90 119 125 148 144 148 149 145 146 154 164 164 170 171 170 173 181 182 176 165 145 148 11 328 337 349 72 90 73 13 349 342 322 328 332 337 341 353 356 4 2
157 191 157 149 146 123 115 106 99 130 164 162 151 151 153 156 161 165 165 162 152 143 155 164 166 163 161 142 137 145 130 41 6 22 71 84 70 50 28 12 337 342 343 343 353 357 12 37 44
162 165 131 130 112 110 108 115 124 137 145 145 146 149 157 161 165 165 158 148 138 139 144 145 139 136 135 126 129 114 100 72 39 46 53 85 90 74 44 20 14 4 2 11 20 19 35 41 39
202 102 81 96 99 118 119 124 115 152 148 148 154 162 164 163 160 151 145 143 139 134 133 131 125 126 121 114 109 110 100 77 57 51 53 69 77 73 60 41 26 19 17 30 42 34 47 49 51
96 86 54 61 109 136 111 92 139 163 155 158 166 166 162 165 158 157 161 152 144 138 129 125 124 115 111 109 106 104 91 74 59 52 57 67 70 69 66 52 33 15 26 42 46 36 40 50 55
58 77 103 259 154 158 120 152 178 169 161 165 170 167 167 172 166 162 159 152 149 141 135 133 126 113 108 103 98 98 90 82 68 60 57 58 63 70 65 53 30 20 34 39 52 42 47 44 48
29 118 195 263 197 142 126 166 186 180 170 170 173 172 172 171 165 165 163 159 154 147 138 131 128 122 112 102 99 95 87 76 66 61 57 53 56 62 66 52 29 31 39 32 46 49 57 55 50
204 202 214 217 211 138 145 178 179 180 176 176 175 174 174 173 180 171 164 161 153 148 138 135 127 120 111 99 89 76 64 57 54 57 55 55 51 55 61 54 35 39 45 35 42 55 48 55 59
175 200 246 260 145 134 175 179 183 183 180 180 182 182 180 186 189 172 161 155 148 145 137 139 133 131 122 113 108 98 84 59 44 45 55 57 58 57 60 58 42 43 51 43 46 60 54 39 43
167 188 249 325 32 105 179 200 192 187 188 185 184 187 185 178 176 173 164 160 155 152 147 144 145 143 139 135 134 133 130 109 75 42 43 48 59 57 66 65 55 47 55 46 42 56 63 36 39
215 182 175 180 33 50 101 272 224 218 197 194 190 187 183 179 177 174 171 167 155 155 158 154 154 142 136 127 109 91 68 50 40 35 24 19 53 60 63 66 66 56 62 60 50 60 78 64 30
219 192 146 126 97 255 142 213 253 216 211 205 198 188 187 185 178 175 173 167 164 163 158 150 147 139 137 129 125 129 128 135 176 167 60 32 45 55 61 70 70 65 64 63 53 63 74 88 57
181 160 128 125 120 137 187 177 257 200 212 214 204 195 191 187 181 179 177 171 165 156 149 148 141 138 138 132 132 129 128 142 134 99 76 45 31 42 59 68 70 67 63 64 60 59 63 75 88
128 91 66 53 73 250 215 185 252 208 207 204 203 198 192 188 183 178 171 157 152 147 144 144 139 139 138 133 134 137 140 137 128 123 111 59 27 28 46 69 69 71 67 64 66 67 69 73 78
104 95 63 14 352 254 217 205 245 226 207 198 195 197 191 183 175 168 163 162 157 154 152 148 144 144 143 138 138 146 147 145 148 154 152 144 100 52 50 73 71 65 70 72 70 67 64 66 73
156 134 152 180 217 277 241 232 253 236 212 195 189 186 181 178 174 172 171 168 165 160 157 154 150 149 148 145 148 149 146 141 148 156 154 158 160 169 130 98 81 69 70 74 72 68 63 66 67
136 155 165 137 212 262 265 275 296 275 191 186 181 177 180 180 176 174 172 169 166 163 165 161 156 152 153 153 146 144 145 144 148 149 145 151 161 150 115 100 87 71 69 74 76 69 63 68 64
143 146 111 127 171 259 283 267 255 243 193 189 184 183 183 179 176 174 172 172 169 165 164 161 158 158 158 155 154 150 149 145 144 137 140 148 159 134 117 101 94 78 69 72 73 69 64 69 58
156 141 128 129 157 178 276 274 232 204 199 193 191 184 178 176 175 173 173 172 165 159 159 162 162 154 156 157 151 143 145 142 137 133 141 145 140 133 124 121 106 88 76 76 78 73 71 73 61
169 170 150 152 197 193 220 273 273 221 212 187 184 180 177 175 173 170 168 166 164 164 165 167 165 163 165 159 152 150 147 141 135 136 144 140 133 133 127 119 108 101 89 81 83 81 79 82 75